EHI
0 0 0 0 0 0 0 0 0 0 0 0 0 0 0 0 0 0 0 0 0 0 0 0 0 0 0 0 0 0 0 0 0 0 0 0 0 0
0 0 0 0 0 0 0 0 0 0 0 0 0 0 0 0 0 0 0 0 0 0 0 0 0 0 0 0 0 0 0 0 0 0 0 0 0 0
0 0 0 0 0 0 0 0 0 0 0 0 0 0 0 0 0 0 0 0 0 0 0 0 0 0 0 0 0 0 0 0 0 0 0 0 0 0
0 0 0 0 0 0 0 0 0 0 0 0 0 0 0 0 0 0 0 0 0 0 0 0 0 0 0 0 0 0 0 0 0 0 0 0 0 0
0 0 0 0 0 0 0 0 0 0 0 0 0 0 0 0 0 0 0 0 0 0 0 0 0 0 0 0 0 0 0 0 0 0 0 0 0 0
0 0 0 0 0 0 0 0 0 0 0 0 0 0 0 0 0 0 0 0 0 0 0 0 0 0 0 0 0 0 0 0 0 0 0 0 0 0
0 0 0 0 0 0 0 0 0 0 0 0 0 0 0 0 0 0 0 0 0 0 0 0 0 0 0 0 0 0 0 0 0 0 0 0 0 0
0 0 0 0 0 0 0 0 0 0 0 0 0 0 0 0 0 0 0 0 0 0 0 0 0 0 0 0 0 0 0 0 0 0 0 0 0 0
0 0 0 0 0 0 0 0 0 0 0 0 0 0 0 0 0 0 0 0 0 0 0 0 0 0 0 0 0 0 0 0 0 0 0 0 0 0
0 0 0 0 0 0 0 0 0 0 0 0 0 0 0 0 0 0 0 0 0 0 0 0 0 0 0 0 0 0 0 0 0 0 0 0 0 0
0 0 0 0 0 0 0 0 0 0 0 0 0 0 0 0 0 0 0 0 0 0 0 0 0 0 0 0 0 0 0 0 0 0 0 0 0 0
0 0 0 0 0 0 0 0 0 0 0 0 0 0 0 0 0 0 0 0 0 0 0 0 0 0 0 0 0 0 0 0 0 0 0 0 0 0
0 0 0 0 0 0 0 0 0 0 0 0 0 0 0 0 0 0 0 0 0 0 0 0 0 0 0 0 0 0 0 0 0 0 0 0 0 0
0 0 0 0 0 0 0 0 0 0 0 0 0 0 0 0 0 0 0 0 0 0 0 0 0 0 0 0 0 0 0 0 0 0 0 0 0 0
0 0 0 0 0 0 0 0 0 0 0 0 0 0 0 0 0 0 0 0 0 0 0 0 0 0 0 0 0 0 0 0 0 0 0 0 0 0
0 0 0 0 0 0 0 0 0 0 0 0 0 0 0 0 0 0 0 0 0 0 0 0 0 0 0 0 0 0 0 0 0 0 0 0 0 0
0 0 0 0 0 0 0 0 0 0 0 0 0 0 0 0 0 0 0 0 0 0 0 0 0 0 0 0 0 0 0 0 0 0 0 0 0 0
0 0 0 0 0 0 0 0 0 0 0 0 0 0 0 0 0 0 0 0 0 0 0 0 0 0 0 0 0 0 0 0 0 0 0 0 0 0
0 0 0 0 0 0 0 0 0 0 0 0 0 0 0 0 0 0 0 0 0 0 0 0 0 0 0 0 0 0 0 0 0 0 0 0 0 0
0 0 0 0 0 0 0 0 0 0 0 0 0 0 0 0 0 0 0 0 0 0 0 0 0 0 0 0 0 0 0 0 0 0 0 0 0 0
0 0 0 0 0 0 0 0 0 0 0 0 0 0 0 0 0 0 0 0 0 0 0 0 0 0 0 0 0 0 0 0 0 0 0 0 0 0
0 0 0 0 0 0 0 0 0 0 0 0 0 0 0 0 0 0 0 0 0 0 0 0 0 0 0 0 0 0 0 0 0 0 0 0 0 0
0 0 0 0 0 0 0 0 0 0 0 0 0 0 0 0 0 0 0 0 0 0 0 0 0 0 0 0 0 0 0 0 0 0 0 0 0 0
Wind_Speed
3 3 3 3 3 3 3 3 3 3 4 4 3 4 3 3 5 4 4 7 9 9 8 8 8 9 9 9 10 11 11 11 11 11 11 12 14 15
3 3 3 3 3 2 3 3 3 4 4 4 3 4 4 4 5 3 4 7 8 9 8 9 8 8 9 9 9 10 10 11 11 11 11 11 13 14
2 3 4 3 2 2 2 2 2 3 4 5 3 3 3 4 4 3 3 3 4 9 9 9 9 9 9 9 9 10 10 10 11 11 11 12 12 13
3 3 4 3 3 3 2 3 3 3 3 5 4 3 4 4 4 4 4 3 4 7 9 9 9 9 9 8 9 9 9 10 10 11 11 11 12 13
3 3 4 3 4 3 3 3 3 3 3 3 4 3 3 3 2 3 3 3 4 5 7 8 9 9 9 9 10 10 10 10 10 10 10 11 11 12
4 4 4 4 5 4 4 4 3 3 2 2 3 3 3 3 2 2 3 3 4 4 4 5 6 8 9 10 10 10 10 10 10 10 10 10 10 11
4 4 5 5 6 5 4 3 3 2 2 2 3 3 3 2 2 2 3 3 3 2 2 3 3 3 4 7 9 10 10 10 10 10 10 10 10 9
4 4 5 5 5 6 6 6 5 4 3 3 3 3 4 4 3 2 2 2 3 2 1 3 2 3 3 4 7 9 10 10 10 10 9 9 9 9
3 3 3 3 3 3 5 6 5 6 6 4 4 5 4 4 3 3 3 3 4 3 1 3 2 3 3 4 8 10 10 10 10 10 9 9 9 9
3 3 2 3 3 3 3 4 4 4 4 4 5 6 6 5 4 4 4 3 3 3 2 3 3 3 3 3 7 10 10 10 10 10 10 10 9 9
3 3 2 3 4 3 2 3 5 5 5 4 5 6 7 7 5 2 2 2 3 3 2 2 2 2 2 3 5 8 10 10 10 10 10 10 10 9
3 4 4 4 4 4 2 2 4 5 4 6 5 6 5 4 4 3 3 2 2 3 2 2 2 1 2 3 2 2 4 7 9 10 10 10 9 5
3 3 4 6 7 6 4 3 6 5 4 4 4 4 4 3 3 2 3 3 3 4 3 2 2 2 2 2 2 2 2 2 3 4 7 9 9 8
3 3 4 7 8 7 5 5 6 4 2 2 2 3 3 3 3 3 4 4 4 5 4 3 2 3 2 2 3 2 2 2 2 3 3 5 7 10
2 5 7 8 6 5 5 6 4 1 1 2 3 3 3 4 3 3 3 3 4 4 4 3 3 3 3 3 3 2 2 2 3 3 3 3 4 4
3 5 6 5 4 4 4 4 2 1 1 2 3 3 3 3 3 2 2 2 2 4 4 3 3 4 3 4 3 3 3 3 2 3 3 3 3 4
2 2 3 3 3 3 3 3 3 2 2 2 2 3 3 3 3 2 2 2 2 3 4 3 3 3 4 4 3 4 3 3 3 3 3 3 4 5
2 1 2 2 3 3 3 3 3 2 2 2 2 2 3 3 3 3 2 2 3 3 3 3 2 1 1 2 4 4 3 3 3 3 3 3 5 4
1 1 2 2 2 2 2 2 2 2 2 2 2 2 3 3 3 3 3 3 3 4 3 3 2 1 2 4 4 4 4 3 3 3 3 4 5 5
1 1 2 2 2 2 2 2 2 2 2 2 3 3 3 3 3 4 4 4 4 4 3 3 2 2 3 4 3 3 4 3 3 3 3 3 3 3
1 2 2 2 2 2 2 2 2 2 3 3 3 3 3 3 4 4 4 5 4 3 3 4 5 5 2 1 2 3 3 3 3 3 2 2 2 2
1 2 2 2 1 1 2 2 2 2 3 3 3 4 4 3 4 5 4 4 4 3 4 4 4 3 1 1 3 3 3 3 2 2 2 2 3 3
1 1 1 1 1 1 2 2 2 2 3 3 4 4 4 4 4 4 4 4 4 4 3 3 3 2 2 2 2 3 3 3 2 2 3 4 3 4
Wind_Direction
242 245 248 252 243 229 215 197 199 259 278 275 278 281 273 261 257 251 250 250 249 248 245 242 242 239 236 235 231 228 225 223 224 226 232 233 232 232
241 246 253 254 251 238 226 217 198 205 251 265 261 273 282 285 271 257 252 259 254 251 248 243 241 234 230 227 229 229 225 222 221 224 231 235 234 231
263 248 258 258 258 258 246 239 229 211 248 274 266 276 273 276 284 270 260 252 255 251 248 244 241 237 233 230 226 226 223 223 223 226 233 237 235 230
260 259 266 268 266 263 253 251 246 229 227 265 281 280 269 267 263 265 266 258 250 253 250 243 238 235 233 232 227 223 221 221 223 228 233 235 235 229
249 249 260 263 271 270 262 259 258 256 230 244 272 272 274 275 274 278 274 270 265 256 250 243 239 235 234 233 230 227 226 225 226 229 232 230 231 227
256 247 249 248 254 260 265 262 260 269 266 261 271 278 275 276 257 267 289 280 274 268 258 250 241 235 234 233 230 228 227 228 229 232 231 225 225 222
277 268 259 260 256 250 254 250 247 253 265 264 273 282 282 281 268 258 273 287 282 256 253 257 243 237 236 233 231 228 226 228 231 232 231 224 221 220
281 285 279 274 273 273 270 260 238 227 241 244 256 262 268 262 262 263 262 280 289 270 221 263 235 242 240 229 229 225 224 227 230 232 231 228 222 221
269 280 288 290 289 285 289 292 283 264 238 221 238 249 253 249 244 261 252 248 248 250 208 261 251 249 251 246 231 225 223 226 228 228 228 228 225 224
278 271 273 290 296 299 299 306 300 293 270 240 234 247 250 250 234 236 246 260 267 262 205 242 253 247 254 253 242 229 227 226 226 226 225 225 226 224
301 293 278 286 294 310 311 304 308 307 302 287 268 270 272 267 248 231 257 247 271 273 223 214 248 254 251 250 249 237 234 230 228 227 226 226 226 224
312 308 293 293 302 313 284 276 289 291 308 319 318 312 298 289 270 217 221 227 245 271 247 203 240 228 280 263 244 240 237 237 232 230 227 225 221 215
302 304 303 311 313 310 295 251 258 270 287 293 300 304 305 298 287 259 225 211 219 244 241 193 215 205 221 270 278 242 221 227 222 231 231 229 219 202
279 289 295 308 310 308 301 288 289 292 290 301 305 302 300 296 285 273 257 242 234 238 244 208 214 210 210 239 266 271 245 230 213 225 223 223 223 217
274 293 305 314 316 312 311 312 311 297 290 296 292 284 278 280 287 294 293 278 276 269 255 228 223 228 214 223 241 243 252 253 220 222 228 217 214 203
313 314 321 328 329 313 319 327 315 280 253 264 278 286 297 308 303 296 293 303 310 302 286 254 231 223 235 242 233 244 235 232 227 222 219 227 220 210
330 346 350 343 341 333 331 329 333 345 335 314 302 307 312 311 299 300 293 287 283 287 296 293 268 239 225 224 239 245 240 239 233 218 207 232 237 227
67 356 332 331 328 328 330 331 332 328 315 310 313 316 317 315 306 305 302 287 282 280 280 279 285 313 317 274 231 237 246 248 250 234 216 228 249 242
64 326 315 313 313 314 312 312 315 318 324 322 314 312 313 310 309 307 307 298 291 287 282 276 266 238 278 287 284 236 225 243 241 242 235 227 241 249
344 306 306 308 306 308 316 320 323 337 340 330 323 320 320 316 316 317 313 303 296 295 298 297 276 245 234 249 266 282 251 226 222 237 248 245 253 264
311 305 304 309 313 322 331 337 339 334 331 329 327 325 324 322 316 311 309 310 303 298 301 297 289 287 267 282 295 295 292 260 227 219 222 227 253 264
296 310 320 337 342 347 347 348 349 345 341 337 329 327 324 321 316 314 313 317 313 304 298 299 311 325 313 252 272 279 289 303 294 275 250 207 195 215
294 311 329 351 2 -0 354 352 355 340 333 327 323 321 320 318 314 311 309 309 313 314 311 309 318 319 302 274 272 282 292 296 313 338 329 321 279 253